| time (UTC) | temp F | wind direction | speed MPH | gust MPH | rain 1hr in | rain 24hr in | rain mn in | humidity % | barometer mb |
| 20260506044537 | 49 | 79 | 0.0 | 0.0 | 0.00 | 0.27 | 0.11 | 95 | 1016.5 |
| 20260506043034 | 49 | 79 | 0.0 | 0.0 | 0.00 | 0.27 | 0.11 | 95 | 1016.4 |
| 20260506041533 | 48 | 79 | 0.0 | 0.0 | 0.00 | 0.27 | 0.11 | 95 | 1016.3 |
| 20260506040037 | 48 | 79 | 0.0 | 0.0 | 0.00 | 0.27 | 0.11 | 95 | 1016.0 |
| 20260506034542 | 48 | 3 | 0.0 | 0.0 | 0.00 | 0.28 | 0.11 | 94 | 1015.9 |
| 20260506033032 | 49 | 4 | 0.0 | 0.0 | 0.00 | 0.28 | 0.11 | 94 | 1015.5 |
| 20260506031531 | 50 | 4 | 0.0 | 0.0 | 0.00 | 0.28 | 0.11 | 94 | 1015.2 |
| 20260506030037 | 50 | 3 | 0.0 | 0.0 | 0.00 | 0.28 | 0.11 | 94 | 1015.3 |
| 20260506024553 | 50 | 4 | 0.0 | 0.0 | 0.00 | 0.28 | 0.11 | 93 | 1015.4 |
| 20260506023023 | 50 | 3 | 0.0 | 0.0 | 0.01 | 0.28 | 0.11 | 93 | 1015.2 |
| 20260506021524 | 50 | 3 | 0.0 | 0.0 | 0.01 | 0.28 | 0.11 | 93 | 1015.2 |
| 20260506020023 | 50 | 4 | 0.0 | 0.0 | 0.01 | 0.28 | 0.11 | 93 | 1015.1 |
| 20260506014521 | 50 | 3 | 0.0 | 1.0 | 0.01 | 0.28 | 0.11 | 93 | 1015.2 |
| 20260506013033 | 50 | 4 | 0.0 | 0.0 | 0.00 | 0.27 | 0.10 | 93 | 1015.1 |
| 20260506011520 | 50 | 3 | 0.0 | 1.0 | 0.00 | 0.27 | 0.10 | 93 | 1015.1 |
| 20260506010021 | 50 | 3 | 0.0 | 0.0 | 0.00 | 0.27 | 0.10 | 93 | 1014.9 |
| 20260506004517 | 50 | 3 | 0.0 | 1.0 | 0.00 | 0.27 | 0.10 | 93 | 1014.9 |
| 20260506003019 | 51 | 4 | 0.0 | 1.0 | 0.00 | 0.27 | 0.10 | 92 | 1014.9 |
| 20260506001520 | 51 | 4 | 0.0 | 0.0 | 0.00 | 0.27 | 0.10 | 92 | 1014.7 |
| 20260506000017 | 51 | 4 | 0.0 | 1.0 | 0.00 | 0.27 | 0.10 | 92 | 1014.6 |
| 20260505234516 | 51 | 4 | 0.0 | 1.0 | 0.00 | 0.28 | 0.10 | 92 | 1014.6 |
| 20260505233018 | 51 | 3 | 0.0 | 1.0 | 0.00 | 0.28 | 0.10 | 91 | 1014.5 |
| 20260505231514 | 51 | 4 | 0.0 | 1.0 | 0.00 | 0.28 | 0.10 | 91 | 1014.4 |
| 20260505230033 | 51 | 4 | 0.0 | 1.0 | 0.00 | 0.28 | 0.10 | 92 | 1014.4 |
| 20260505224513 | 51 | 3 | 0.0 | 1.0 | 0.00 | 0.31 | 0.10 | 92 | 1014.4 |
| 20260505223011 | 51 | 4 | 0.0 | 0.0 | 0.00 | 0.31 | 0.10 | 91 | 1014.5 |
| 20260505221511 | 51 | 4 | 0.0 | 1.0 | 0.00 | 0.31 | 0.10 | 91 | 1014.6 |
| 20260505220010 | 51 | 1 | 0.0 | 0.0 | 0.00 | 0.31 | 0.10 | 91 | 1014.6 |
| 20260505214511 | 50 | 1 | 0.0 | 1.0 | 0.00 | 0.45 | 0.10 | 90 | 1014.7 |
| 20260505213011 | 50 | 18 | 0.0 | 1.0 | 0.00 | 0.45 | 0.10 | 90 | 1014.7 |
| 20260505211510 | 51 | 34 | 0.0 | 1.0 | 0.00 | 0.45 | 0.10 | 89 | 1014.7 |
| 20260505210009 | 50 | 19 | 0.0 | 0.0 | 0.00 | 0.45 | 0.10 | 90 | 1014.7 |
| 20260505204508 | 50 | 19 | 0.0 | 0.0 | 0.00 | 0.55 | 0.10 | 90 | 1014.6 |
| 20260505203009 | 50 | 13 | 0.0 | 0.0 | 0.00 | 0.55 | 0.10 | 90 | 1014.7 |
| 20260505201509 | 50 | 360 | 0.0 | 0.0 | 0.00 | 0.55 | 0.10 | 90 | 1014.6 |
| 20260505200018 | 51 | 360 | 0.0 | 0.0 | 0.00 | 0.55 | 0.10 | 90 | 1014.6 |
| 20260505194507 | 51 | 352 | 0.0 | 0.0 | 0.00 | 0.55 | 0.10 | 90 | 1014.6 |
| 20260505193009 | 51 | 352 | 0.0 | 0.0 | 0.00 | 0.55 | 0.10 | 91 | 1014.6 |
| 20260505191504 | 50 | 20 | 0.0 | 0.0 | 0.00 | 0.55 | 0.10 | 89 | 1014.4 |
| 20260505190003 | 50 | 18 | 0.0 | 0.0 | 0.00 | 0.55 | 0.10 | 90 | 1014.3 |
| 20260505184503 | 50 | 22 | 0.0 | 0.0 | 0.00 | 0.55 | 0.10 | 90 | 1014.3 |
| 20260505183003 | 51 | 23 | 0.0 | 0.0 | 0.00 | 0.55 | 0.10 | 89 | 1014.3 |
| 20260505181502 | 51 | 281 | 0.0 | 0.0 | 0.00 | 0.55 | 0.10 | 87 | 1014.2 |
| 20260505180104 | 51 | 8 | 0.0 | 1.0 | 0.00 | 0.55 | 0.10 | 88 | 1014.0 |
| 20260505174600 | 52 | 297 | 0.0 | 1.0 | 0.00 | 0.57 | 0.10 | 87 | 1013.7 |
| 20260505173059 | 52 | 15 | 0.0 | 1.0 | 0.00 | 0.57 | 0.10 | 87 | 1013.8 |
| 20260505171557 | 52 | 345 | 0.0 | 2.0 | 0.00 | 0.57 | 0.10 | 87 | 1013.7 |
| 20260505170057 | 52 | 8 | 0.0 | 1.0 | 0.00 | 0.57 | 0.10 | 88 | 1013.8 |
| 20260505164601 | 52 | 193 | 0.0 | 1.0 | 0.00 | 0.59 | 0.10 | 92 | 1013.7 |
| 20260505163056 | 50 | 246 | 0.0 | 2.0 | 0.00 | 0.59 | 0.10 | 96 | 1013.6 |
| 20260505161547 | 48 | 8 | 0.0 | 1.0 | 0.00 | 0.59 | 0.10 | 96 | 1013.5 |
| 20260505153101 | 46 | 11 | 0.0 | 1.0 | 0.00 | 0.63 | 0.10 | 97 | 1013.5 |
| 20260505151553 | 46 | 10 | 0.0 | 0.0 | 0.00 | 0.63 | 0.10 | 97 | 1013.7 |
| 20260505124538 | 45 | 30 | 0.0 | 0.0 | 0.02 | 0.66 | 0.10 | 96 | 1013.1 |
| 20260505123038 | 45 | 30 | 0.0 | 0.0 | 0.02 | 0.66 | 0.10 | 96 | 1012.9 |
| 20260505121538 | 45 | 30 | 0.0 | 0.0 | 0.02 | 0.65 | 0.09 | 96 | 1013.0 |
| 20260505120038 | 45 | 30 | 0.0 | 0.0 | 0.02 | 0.64 | 0.08 | 96 | 1012.9 |
| 20260505114541 | 45 | 30 | 0.0 | 1.0 | 0.02 | 0.64 | 0.08 | 96 | 1012.8 |
| 20260505113034 | 45 | 30 | 0.0 | 1.0 | 0.03 | 0.64 | 0.08 | 96 | 1012.7 |
| 20260505111538 | 45 | 30 | 0.0 | 0.0 | 0.04 | 0.63 | 0.07 | 96 | 1012.8 |
| 20260505101532 | 45 | 30 | 0.0 | 0.0 | 0.01 | 0.59 | 0.03 | 96 | 1013.0 |
| 20260505100040 | 45 | 30 | 0.0 | 0.0 | 0.01 | 0.59 | 0.03 | 96 | 1013.1 |
| 20260505094528 | 45 | 30 | 0.0 | 0.0 | 0.00 | 0.57 | 0.02 | 96 | 1013.3 |
| 20260505093027 | 45 | 30 | 0.0 | 0.0 | 0.00 | 0.57 | 0.02 | 96 | 1013.1 |
| 20260505091526 | 45 | 30 | 0.0 | 1.0 | 0.00 | 0.57 | 0.02 | 96 | 1013.3 |
| 20260505090044 | 45 | 30 | 0.0 | 0.0 | 0.00 | 0.57 | 0.02 | 96 | 1013.2 |
| 20260505084533 | 45 | 30 | 0.0 | 0.0 | 0.00 | 0.57 | 0.02 | 96 | 1013.3 |
| 20260505083035 | 45 | 30 | 0.0 | 0.0 | 0.00 | 0.57 | 0.02 | 96 | 1013.6 |
| 20260505081536 | 45 | 30 | 0.0 | 0.0 | 0.01 | 0.57 | 0.02 | 96 | 1013.6 |
| 20260505080036 | 45 | 30 | 0.0 | 0.0 | 0.03 | 0.57 | 0.02 | 96 | 1013.6 |
| 20260505074522 | 45 | 30 | 0.0 | 1.0 | 0.06 | 0.57 | 0.02 | 96 | 1013.5 |
| 20260505073018 | 45 | 30 | 0.0 | 1.0 | 0.10 | 0.57 | 0.02 | 95 | 1013.5 |
| 20260505071524 | 45 | 31 | 0.0 | 0.0 | 0.11 | 0.56 | 0.01 | 95 | 1013.4 |
| 20260505070115 | 45 | 31 | 0.0 | 0.0 | 0.12 | 0.56 | 0.00 | 95 | 1013.3 |
| 20260505064514 | 46 | 31 | 0.0 | 0.0 | 0.10 | 0.53 | 0.53 | 95 | 1013.4 |
| 20260505063016 | 46 | 31 | 0.0 | 0.0 | 0.06 | 0.48 | 0.48 | 95 | 1013.5 |
| 20260505061524 | 46 | 31 | 0.0 | 0.0 | 0.04 | 0.46 | 0.46 | 95 | 1013.6 |
| 20260505060013 | 46 | 31 | 0.0 | 0.0 | 0.02 | 0.44 | 0.44 | 95 | 1013.4 |